Time,TemperatureF,DewpointF,PressureIn,WindDirection,WindDirectionDegrees,WindSpeedMPH,WindSpeedGustMPH,Humidity,HourlyPrecipIn,Conditions,Clouds,dailyrainin,SoftwareType,DateUTC
2013-08-04 00:00:00,55.7,54.0,29.89,WNW,302,0.0,1.0,95,0.00,,,0.00,weatherlink.com 1.10,2013-08-04 04:00:00,
2013-08-04 00:15:00,55.7,55.0,29.89,WNW,302,0.0,1.0,96,0.00,,,0.00,weatherlink.com 1.10,2013-08-04 04:15:00,
2013-08-04 00:30:00,55.3,54.0,29.89,WNW,302,0.0,1.0,96,0.00,,,0.00,weatherlink.com 1.10,2013-08-04 04:30:00,
2013-08-04 00:45:00,55.1,54.0,29.89,NNE,17,0.0,0.0,96,0.00,,,0.00,weatherlink.com 1.10,2013-08-04 04:45:00,
2013-08-04 01:00:00,54.7,54.0,29.89,NNE,17,0.0,0.0,96,0.00,,,0.00,weatherlink.com 1.10,2013-08-04 05:00:00,
2013-08-04 01:15:00,54.4,53.0,29.89,NNE,17,0.0,2.0,96,0.00,,,0.00,weatherlink.com 1.10,2013-08-04 05:15:00,
2013-08-04 01:30:00,54.1,53.0,29.89,NNE,17,0.0,1.0,96,0.00,,,0.00,weatherlink.com 1.10,2013-08-04 05:30:00,
2013-08-04 01:45:00,53.9,53.0,29.89,NNE,17,0.0,0.0,97,0.00,,,0.00,weatherlink.com 1.10,2013-08-04 05:45:00,
2013-08-04 02:00:00,53.9,53.0,29.89,NNE,17,0.0,0.0,97,0.00,,,0.00,weatherlink.com 1.10,2013-08-04 06:00:00,
2013-08-04 02:15:00,53.8,53.0,29.89,NNE,17,0.0,1.0,97,0.00,,,0.00,weatherlink.com 1.10,2013-08-04 06:15:00,
2013-08-04 02:30:00,53.9,53.0,29.89,NNE,17,0.0,1.0,97,0.00,,,0.00,weatherlink.com 1.10,2013-08-04 06:30:00,
2013-08-04 02:45:00,53.8,53.0,29.89,NNE,17,0.0,0.0,97,0.00,,,0.00,weatherlink.com 1.10,2013-08-04 06:45:00,
2013-08-04 03:00:00,53.9,53.0,29.89,NNE,17,0.0,0.0,97,0.00,,,0.00,weatherlink.com 1.10,2013-08-04 07:00:00,
2013-08-04 03:15:00,54.1,54.0,29.89,NNE,17,0.0,0.0,98,0.00,,,0.00,weatherlink.com 1.10,2013-08-04 07:15:00,
2013-08-04 03:30:00,54.5,54.0,29.88,NNE,17,0.0,0.0,98,0.00,,,0.00,weatherlink.com 1.10,2013-08-04 07:30:00,
2013-08-04 03:45:00,54.8,54.0,29.89,NNE,17,0.0,0.0,98,0.00,,,0.00,weatherlink.com 1.10,2013-08-04 07:45:00,
2013-08-04 04:00:00,55.0,55.0,29.88,NNE,17,0.0,0.0,98,0.00,,,0.00,weatherlink.com 1.10,2013-08-04 08:00:00,
2013-08-04 04:15:00,55.0,55.0,29.89,NNE,17,0.0,0.0,98,0.00,,,0.00,weatherlink.com 1.10,2013-08-04 08:15:00,
2013-08-04 04:31:00,55.2,55.0,29.89,NNE,17,0.0,0.0,98,0.00,,,0.00,weatherlink.com 1.10,2013-08-04 08:31:00,
2013-08-04 04:46:00,55.5,55.0,29.89,NNE,17,0.0,0.0,98,0.00,,,0.00,weatherlink.com 1.10,2013-08-04 08:46:00,
2013-08-04 05:01:00,55.7,55.0,29.89,NNE,17,0.0,1.0,98,0.00,,,0.00,weatherlink.com 1.10,2013-08-04 09:01:00,
2013-08-04 05:16:00,56.0,56.0,29.89,NNE,17,0.0,0.0,98,0.00,,,0.00,weatherlink.com 1.10,2013-08-04 09:16:00,
2013-08-04 05:31:00,56.3,56.0,29.90,NNE,17,0.0,0.0,98,0.00,,,0.00,weatherlink.com 1.10,2013-08-04 09:31:00,
2013-08-04 05:46:00,56.3,56.0,29.90,NNE,17,0.0,0.0,98,0.00,,,0.00,weatherlink.com 1.10,2013-08-04 09:46:00,
2013-08-04 06:01:00,56.4,56.0,29.91,NNE,17,0.0,0.0,98,0.00,,,0.00,weatherlink.com 1.10,2013-08-04 10:01:00,
2013-08-04 06:15:00,55.9,55.0,29.91,NNE,17,0.0,0.0,98,0.00,,,0.00,weatherlink.com 1.10,2013-08-04 10:15:00,
2013-08-04 06:31:00,55.7,55.0,29.91,NNE,17,1.0,1.0,98,0.00,,,0.00,weatherlink.com 1.10,2013-08-04 10:31:00,
2013-08-04 06:46:00,56.2,56.0,29.91,NNE,30,0.0,1.0,98,0.00,,,0.00,weatherlink.com 1.10,2013-08-04 10:46:00,
2013-08-04 07:00:00,56.7,56.0,29.90,NNE,30,0.0,1.0,98,0.00,,,0.00,weatherlink.com 1.10,2013-08-04 11:00:00,
2013-08-04 07:16:00,56.8,57.0,29.91,NNE,30,0.0,0.0,99,0.00,,,0.00,weatherlink.com 1.10,2013-08-04 11:16:00,
2013-08-04 07:31:00,57.4,57.0,29.91,NNE,30,0.0,0.0,99,0.00,,,0.00,weatherlink.com 1.10,2013-08-04 11:31:00,
2013-08-04 07:46:00,58.1,58.0,29.91,WSW,247,0.0,2.0,99,0.00,,,0.00,weatherlink.com 1.10,2013-08-04 11:46:00,
2013-08-04 08:01:00,58.7,58.0,29.92,West,270,0.0,1.0,98,0.00,,,0.00,weatherlink.com 1.10,2013-08-04 12:01:00,
2013-08-04 08:16:00,59.3,59.0,29.91,West,267,0.0,2.0,98,0.00,,,0.00,weatherlink.com 1.10,2013-08-04 12:16:00,
2013-08-04 08:31:00,60.2,59.0,29.91,West,275,0.0,1.0,97,0.00,,,0.00,weatherlink.com 1.10,2013-08-04 12:31:00,
2013-08-04 08:46:00,61.0,60.0,29.91,West,275,0.0,2.0,96,0.00,,,0.00,weatherlink.com 1.10,2013-08-04 12:46:00,
2013-08-04 09:01:00,61.7,60.0,29.91,WSW,255,1.0,3.0,95,0.00,,,0.00,weatherlink.com 1.10,2013-08-04 13:01:00,
2013-08-04 09:16:00,62.6,61.0,29.91,WSW,245,2.0,5.0,93,0.00,,,0.00,weatherlink.com 1.10,2013-08-04 13:16:00,
2013-08-04 09:31:00,63.1,60.0,29.91,West,278,2.0,6.0,90,0.00,,,0.00,weatherlink.com 1.10,2013-08-04 13:31:00,
2013-08-04 09:46:00,63.5,60.0,29.91,WSW,254,3.0,6.0,88,0.00,,,0.00,weatherlink.com 1.10,2013-08-04 13:46:00,
2013-08-04 10:01:00,64.8,61.0,29.91,NW,304,0.0,8.0,86,0.00,,,0.00,weatherlink.com 1.10,2013-08-04 14:01:00,
2013-08-04 10:16:00,64.9,60.0,29.91,West,279,3.0,10.0,84,0.00,,,0.00,weatherlink.com 1.10,2013-08-04 14:16:00,
2013-08-04 10:31:00,65.6,60.0,29.91,NNW,327,2.0,9.0,83,0.00,,,0.00,weatherlink.com 1.10,2013-08-04 14:31:00,
2013-08-04 10:46:00,65.8,60.0,29.91,WNW,294,5.0,12.0,81,0.00,,,0.00,weatherlink.com 1.10,2013-08-04 14:46:00,
2013-08-04 11:01:00,65.7,60.0,29.91,West,278,3.0,6.0,81,0.00,,,0.00,weatherlink.com 1.10,2013-08-04 15:01:00,
2013-08-04 11:16:00,65.4,61.0,29.91,SW,227,0.0,8.0,84,0.00,,,0.00,weatherlink.com 1.10,2013-08-04 15:16:00,
2013-08-04 11:31:00,65.4,61.0,29.92,WSW,255,1.0,2.0,84,0.00,,,0.00,weatherlink.com 1.10,2013-08-04 15:31:00,
2013-08-04 11:46:00,64.4,60.0,29.92,SW,229,0.0,3.0,85,0.01,,,0.01,weatherlink.com 1.10,2013-08-04 15:46:00,
2013-08-04 12:01:00,65.0,60.0,29.91,North,360,0.0,4.0,85,0.01,,,0.01,weatherlink.com 1.10,2013-08-04 16:01:00,
2013-08-04 12:16:00,66.5,60.0,29.91,SSW,212,2.0,6.0,80,0.01,,,0.01,weatherlink.com 1.10,2013-08-04 16:16:00,
2013-08-04 12:31:00,67.2,60.0,29.91,SSW,205,0.0,4.0,77,0.01,,,0.01,weatherlink.com 1.10,2013-08-04 16:31:00,
2013-08-04 12:47:00,69.0,57.0,29.91,WNW,291,3.0,14.0,65,0.00,,,0.01,weatherlink.com 1.10,2013-08-04 16:47:00,
2013-08-04 13:02:00,68.6,58.0,29.91,WSW,250,4.0,12.0,68,0.00,,,0.01,weatherlink.com 1.10,2013-08-04 17:02:00,
2013-08-04 13:17:00,69.1,58.0,29.91,West,273,2.0,10.0,68,0.00,,,0.01,weatherlink.com 1.10,2013-08-04 17:17:00,
2013-08-04 13:32:00,69.3,57.0,29.91,WSW,241,0.0,11.0,66,0.00,,,0.01,weatherlink.com 1.10,2013-08-04 17:32:00,
2013-08-04 13:46:00,69.0,57.0,29.91,WNW,287,4.0,11.0,65,0.00,,,0.01,weatherlink.com 1.10,2013-08-04 17:46:00,
2013-08-04 14:02:00,69.7,56.0,29.90,West,265,13.0,17.0,62,0.00,,,0.01,weatherlink.com 1.10,2013-08-04 18:02:00,
2013-08-04 14:17:00,70.2,56.0,29.90,SSW,208,6.0,17.0,61,0.01,,,0.02,weatherlink.com 1.10,2013-08-04 18:17:00,
2013-08-04 14:31:00,70.5,56.0,29.90,West,259,5.0,16.0,60,0.01,,,0.02,weatherlink.com 1.10,2013-08-04 18:31:00,
2013-08-04 14:47:00,70.8,57.0,29.90,WNW,298,15.0,19.0,62,0.01,,,0.02,weatherlink.com 1.10,2013-08-04 18:47:00,
2013-08-04 15:02:00,70.8,56.0,29.90,SW,227,13.0,19.0,60,0.01,,,0.02,weatherlink.com 1.10,2013-08-04 19:02:00,
2013-08-04 15:17:00,70.1,55.0,29.91,WNW,294,8.0,18.0,60,0.00,,,0.02,weatherlink.com 1.10,2013-08-04 19:17:00,
2013-08-04 15:32:00,70.3,55.0,29.91,West,273,3.0,19.0,59,0.00,,,0.02,weatherlink.com 1.10,2013-08-04 19:32:00,
2013-08-04 15:47:00,70.0,55.0,29.91,NW,314,7.0,15.0,60,0.00,,,0.02,weatherlink.com 1.10,2013-08-04 19:47:00,
2013-08-04 16:02:00,70.8,57.0,29.91,WSW,247,9.0,15.0,63,0.00,,,0.02,weatherlink.com 1.10,2013-08-04 20:02:00,
2013-08-04 16:17:00,69.8,53.0,29.92,WNW,293,7.0,16.0,56,0.00,,,0.02,weatherlink.com 1.10,2013-08-04 20:17:00,
2013-08-04 16:32:00,69.4,57.0,29.93,WNW,286,4.0,16.0,64,0.00,,,0.02,weatherlink.com 1.10,2013-08-04 20:32:00,
2013-08-04 16:47:00,67.4,54.0,29.93,WNW,282,4.0,13.0,62,0.00,,,0.02,weatherlink.com 1.10,2013-08-04 20:47:00,
2013-08-04 17:02:00,68.2,55.0,29.93,West,271,8.0,15.0,62,0.00,,,0.02,weatherlink.com 1.10,2013-08-04 21:02:00,
2013-08-04 17:17:00,68.8,54.0,29.93,WNW,298,7.0,13.0,59,0.00,,,0.02,weatherlink.com 1.10,2013-08-04 21:17:00,
2013-08-04 17:32:00,68.3,54.0,29.94,SSW,213,7.0,12.0,61,0.00,,,0.02,weatherlink.com 1.10,2013-08-04 21:32:00,
2013-08-04 17:47:00,67.0,55.0,29.94,NNW,329,5.0,8.0,65,0.00,,,0.02,weatherlink.com 1.10,2013-08-04 21:47:00,
2013-08-04 18:02:00,67.4,55.0,29.94,WNW,298,8.0,12.0,65,0.00,,,0.02,weatherlink.com 1.10,2013-08-04 22:02:00,
2013-08-04 18:17:00,67.4,54.0,29.95,WNW,302,5.0,13.0,63,0.00,,,0.02,weatherlink.com 1.10,2013-08-04 22:17:00,
2013-08-04 18:32:00,66.5,55.0,29.95,South,186,10.0,15.0,67,0.00,,,0.02,weatherlink.com 1.10,2013-08-04 22:32:00,
2013-08-04 18:47:00,65.8,55.0,29.95,West,269,5.0,12.0,69,0.00,,,0.02,weatherlink.com 1.10,2013-08-04 22:47:00,
2013-08-04 19:02:00,65.1,55.0,29.96,West,275,6.0,14.0,70,0.00,,,0.02,weatherlink.com 1.10,2013-08-04 23:02:00,
2013-08-04 19:17:00,64.9,55.0,29.96,WSW,244,10.0,14.0,70,0.00,,,0.02,weatherlink.com 1.10,2013-08-04 23:17:00,
2013-08-04 19:32:00,64.5,55.0,29.96,SW,235,4.0,11.0,72,0.00,,,0.02,weatherlink.com 1.10,2013-08-04 23:32:00,
2013-08-04 19:47:00,63.5,55.0,29.97,West,269,3.0,11.0,74,0.00,,,0.02,weatherlink.com 1.10,2013-08-04 23:47:00,
2013-08-04 20:02:00,62.6,55.0,29.97,WNW,293,0.0,7.0,76,0.00,,,0.02,weatherlink.com 1.10,2013-08-05 00:02:00,
2013-08-04 20:17:00,61.6,55.0,29.98,West,281,0.0,3.0,79,0.00,,,0.02,weatherlink.com 1.10,2013-08-05 00:17:00,
2013-08-04 20:32:00,61.0,55.0,29.98,West,273,0.0,3.0,80,0.00,,,0.02,weatherlink.com 1.10,2013-08-05 00:32:00,
2013-08-04 20:47:00,60.5,55.0,29.98,West,273,0.0,0.0,82,0.00,,,0.02,weatherlink.com 1.10,2013-08-05 00:47:00,
2013-08-04 21:02:00,59.8,55.0,29.98,West,273,0.0,2.0,84,0.00,,,0.02,weatherlink.com 1.10,2013-08-05 01:02:00,
2013-08-04 21:17:00,59.0,55.0,29.99,West,264,0.0,5.0,85,0.00,,,0.02,weatherlink.com 1.10,2013-08-05 01:17:00,
2013-08-04 21:32:00,58.5,54.0,29.98,West,264,0.0,1.0,86,0.00,,,0.02,weatherlink.com 1.10,2013-08-05 01:32:00,
2013-08-04 21:47:00,57.8,54.0,29.99,West,264,0.0,0.0,88,0.00,,,0.02,weatherlink.com 1.10,2013-08-05 01:47:00,
2013-08-04 22:02:00,57.5,54.0,29.99,West,264,0.0,0.0,88,0.00,,,0.02,weatherlink.com 1.10,2013-08-05 02:02:00,
2013-08-04 22:17:00,57.2,54.0,29.99,West,264,0.0,0.0,89,0.00,,,0.02,weatherlink.com 1.10,2013-08-05 02:17:00,
2013-08-04 22:32:00,57.2,54.0,30.00,West,264,0.0,1.0,89,0.00,,,0.02,weatherlink.com 1.10,2013-08-05 02:32:00,
2013-08-04 22:47:00,57.4,55.0,30.00,West,264,0.0,3.0,91,0.00,,,0.02,weatherlink.com 1.10,2013-08-05 02:47:00,
2013-08-04 23:02:00,58.0,56.0,30.01,West,264,0.0,1.0,92,0.05,,,0.07,weatherlink.com 1.10,2013-08-05 03:02:00,
2013-08-04 23:17:00,57.3,56.0,30.01,West,266,0.0,3.0,94,0.05,,,0.07,weatherlink.com 1.10,2013-08-05 03:17:00,
2013-08-04 23:32:00,56.9,56.0,30.01,West,266,0.0,1.0,95,0.05,,,0.07,weatherlink.com 1.10,2013-08-05 03:32:00,
2013-08-04 23:47:00,56.8,56.0,30.01,West,266,0.0,0.0,96,0.05,,,0.07,weatherlink.com 1.10,2013-08-05 03:47:00,